Time,TemperatureF,DewpointF,PressureIn,WindDirection,WindDirectionDegrees,WindSpeedMPH,WindSpeedGustMPH,Humidity,HourlyPrecipIn,Conditions,Clouds,dailyrainin,SoftwareType,DateUTC
2013-02-25 00:00:00,10.9,-1.0,30.24,NNE,14,4.0,4.0,58,0.00,,,0.00,Wunderground v.1.15,2013-02-25 07:00:00,
2013-02-25 00:29:00,8.4,-3.4,30.27,NE,41,2.0,2.0,58,0.00,,,0.00,Wunderground v.1.15,2013-02-25 07:29:00,
2013-02-25 00:59:00,6.7,-2.6,30.30,NE,41,2.0,2.0,65,0.00,,,0.00,Wunderground v.1.15,2013-02-25 07:59:00,
2013-02-25 01:29:00,7.0,-2.3,30.27,NE,37,3.0,3.0,65,0.00,,,0.00,Wunderground v.1.15,2013-02-25 08:29:00,
2013-02-25 01:59:00,6.5,-3.4,30.26,NNW,347,2.0,2.0,63,0.00,,,0.00,Wunderground v.1.15,2013-02-25 08:59:00,
2013-02-25 02:29:00,6.5,-3.1,30.30,NNE,28,2.0,2.0,64,0.00,,,0.00,Wunderground v.1.15,2013-02-25 09:29:00,
2013-02-25 03:29:00,6.7,-3.2,30.30,NE,34,1.0,1.0,63,0.00,,,0.00,Wunderground v.1.15,2013-02-25 10:29:00,
2013-02-25 03:59:00,6.7,-2.9,30.30,NNE,18,2.0,2.0,64,0.00,,,0.00,Wunderground v.1.15,2013-02-25 10:59:00,
2013-02-25 04:29:00,4.8,-5.1,30.34,NNE,20,2.0,2.0,63,0.00,,,0.00,Wunderground v.1.15,2013-02-25 11:29:00,
2013-02-25 04:59:00,5.6,-4.3,30.35,NE,45,4.0,5.0,63,0.00,,,0.00,Wunderground v.1.15,2013-02-25 11:59:00,
2013-02-25 05:29:00,5.8,-3.8,30.38,NE,37,2.0,2.0,64,0.00,,,0.00,Wunderground v.1.15,2013-02-25 12:29:00,
2013-02-25 05:59:00,3.7,-5.1,30.41,NE,37,1.0,2.0,66,0.00,,,0.00,Wunderground v.1.15,2013-02-25 12:59:00,
2013-02-25 06:29:00,5.2,-2.8,30.42,NNE,32,3.0,3.0,69,0.00,,,0.00,Wunderground v.1.15,2013-02-25 13:29:00,
2013-02-25 06:59:00,5.2,-4.0,30.43,NNE,16,3.0,3.0,65,0.00,,,0.00,Wunderground v.1.15,2013-02-25 13:59:00,
2013-02-25 07:29:00,2.4,-6.4,30.47,NNE,17,1.0,1.0,66,0.00,,,0.00,Wunderground v.1.15,2013-02-25 14:29:00,
2013-02-25 07:59:00,4.5,-5.0,30.47,NNE,17,1.0,2.0,64,0.00,,,0.00,Wunderground v.1.15,2013-02-25 14:59:00,
2013-02-25 08:29:00,12.6,-0.2,30.43,NE,51,4.0,4.0,56,0.00,,,0.00,Wunderground v.1.15,2013-02-25 15:29:00,
2013-02-25 08:59:00,18.3,2.7,30.39,NE,52,1.0,1.0,50,0.00,,,0.00,Wunderground v.1.15,2013-02-25 15:59:00,
2013-02-25 09:29:00,23.6,-1.3,30.34,NE,42,3.0,3.0,33,0.00,,,0.00,Wunderground v.1.15,2013-02-25 16:29:00,
2013-02-25 09:59:00,26.0,-0.6,30.31,SSW,202,6.0,6.0,31,0.00,,,0.00,Wunderground v.1.15,2013-02-25 16:59:00,
2013-02-25 10:29:00,29.3,2.4,30.31,SSE,165,2.0,3.0,31,0.00,,,0.00,Wunderground v.1.15,2013-02-25 17:29:00,
2013-02-25 10:59:00,28.1,6.3,30.29,SSE,158,4.0,5.0,39,0.00,,,0.00,Wunderground v.1.15,2013-02-25 17:59:00,
2013-02-25 11:29:00,30.7,8.1,30.29,SSE,167,3.0,8.0,38,0.00,,,0.00,Wunderground v.1.15,2013-02-25 18:29:00,
2013-02-25 11:59:00,30.7,9.2,30.30,SSW,206,4.0,14.0,40,0.00,,,0.00,Wunderground v.1.15,2013-02-25 18:59:00,
2013-02-25 12:29:00,31.3,6.1,30.32,South,172,9.0,14.0,34,0.00,,,0.00,Wunderground v.1.15,2013-02-25 19:29:00,
2013-02-25 12:59:00,32.8,3.2,30.31,ENE,71,7.0,7.0,28,0.00,,,0.00,Wunderground v.1.15,2013-02-25 19:59:00,
2013-02-25 13:29:00,34.7,3.2,30.26,SSE,164,6.0,6.0,26,0.00,,,0.00,Wunderground v.1.15,2013-02-25 20:29:00,
2013-02-25 13:59:00,34.1,6.6,30.26,South,186,6.0,10.0,31,0.00,,,0.00,Wunderground v.1.15,2013-02-25 20:59:00,
2013-02-25 14:29:00,34.3,4.5,30.24,East,82,6.0,6.0,28,0.00,,,0.00,Wunderground v.1.15,2013-02-25 21:29:00,
2013-02-25 14:59:00,35.3,2.9,30.23,SSE,164,3.0,3.0,25,0.00,,,0.00,Wunderground v.1.15,2013-02-25 21:59:00,
2013-02-25 15:29:00,33.2,2.8,30.24,South,175,10.0,10.0,27,0.00,,,0.00,Wunderground v.1.15,2013-02-25 22:29:00,
2013-02-25 15:59:00,33.4,3.7,30.24,SSW,195,8.0,8.0,28,0.00,,,0.00,Wunderground v.1.15,2013-02-25 22:59:00,
2013-02-25 16:29:00,33.8,4.1,30.26,NNE,24,4.0,4.0,28,0.00,,,0.00,Wunderground v.1.15,2013-02-25 23:29:00,
2013-02-25 16:59:00,33.8,4.1,30.24,SSW,196,3.0,5.0,28,0.00,,,0.00,Wunderground v.1.15,2013-02-25 23:59:00,
2013-02-25 17:29:00,30.1,3.1,30.29,NE,40,5.0,5.0,31,0.00,,,0.00,Wunderground v.1.15,2013-02-26 00:29:00,
2013-02-25 17:59:00,29.7,4.1,30.30,NE,40,2.0,2.0,33,0.00,,,0.00,Wunderground v.1.15,2013-02-26 00:59:00,
2013-02-25 18:29:00,28.1,5.7,30.29,SSE,150,1.0,1.0,38,0.00,,,0.00,Wunderground v.1.15,2013-02-26 01:29:00,
2013-02-25 18:59:00,27.5,8.4,30.32,SSE,160,1.0,1.0,44,0.00,,,0.00,Wunderground v.1.15,2013-02-26 01:59:00,
2013-02-25 19:29:00,26.7,6.6,30.35,SSE,160,0.0,0.0,42,0.00,,,0.00,Wunderground v.1.15,2013-02-26 02:29:00,
2013-02-25 19:59:00,25.3,6.9,30.34,SSE,160,0.0,0.0,45,0.00,,,0.00,Wunderground v.1.15,2013-02-26 02:59:00,
2013-02-25 20:29:00,25.1,5.7,30.20,SSE,160,0.0,0.0,43,0.00,,,0.00,Wunderground v.1.15,2013-02-26 03:29:00,
2013-02-25 20:59:00,23.5,4.2,30.24,ENE,58,2.0,2.0,43,0.00,,,0.00,Wunderground v.1.15,2013-02-26 03:59:00,
2013-02-25 21:29:00,25.0,6.6,30.15,ENE,58,2.0,2.0,45,0.00,,,0.00,Wunderground v.1.15,2013-02-26 04:29:00,
2013-02-25 21:59:00,24.1,6.7,30.14,ENE,58,0.0,0.0,47,0.00,,,0.00,Wunderground v.1.15,2013-02-26 04:59:00,
2013-02-25 22:29:00,21.4,5.2,30.15,NE,56,1.0,5.0,49,0.00,,,0.00,Wunderground v.1.15,2013-02-26 05:29:00,
2013-02-25 22:59:00,19.7,4.5,30.16,NE,35,5.0,5.0,51,0.00,,,0.00,Wunderground v.1.15,2013-02-26 05:59:00,
2013-02-25 23:29:00,20.2,4.5,30.13,NE,37,7.0,7.0,50,0.00,,,0.00,Wunderground v.1.15,2013-02-26 06:29:00,
2013-02-25 23:59:00,18.3,4.0,30.15,NE,34,1.0,1.0,53,0.00,,,0.00,Wunderground v.1.15,2013-02-26 06:59:00,